Vorticity
14 14 12 12 9 6 7 6 4 6 11 12 13 14 11 11 9 7 8 7 6 5 6 7 7 7 6 6 6 8 9 8 9 10 9 8 10 8 14 16 14 25 19
12 11 12 10 7 6 6 4 14 17 17 14 12 13 12 10 8 7 5 5 5 5 7 6 7 7 8 10 10 9 8 9 9 8 9 10 10 8 9 10 16 16 24
11 11 10 7 5 6 4 7 2 1 4 8 10 9 8 7 6 6 6 7 7 6 5 5 6 6 5 8 8 8 9 9 9 8 8 9 10 10 9 14 18 15 17
10 9 8 6 6 4 5 1 -1 2 3 5 7 8 8 8 8 7 7 6 5 5 5 6 6 5 3 6 9 6 8 11 9 8 8 7 8 6 12 10 13 8 16
9 10 9 8 5 5 3 2 3 4 5 5 6 7 7 7 7 9 11 12 11 10 11 10 10 9 3 2 7 7 9 9 11 9 8 7 7 5 9 8 9 12 -5
7 7 7 6 4 4 3 4 5 6 6 6 7 7 8 5 1 -1 -4 -2 9 12 10 13 13 11 7 6 8 8 8 7 11 10 8 7 7 5 6 10 9 15 15
5 4 4 5 6 4 4 5 7 5 6 8 10 10 6 7 9 8 2 -1 -2 6 10 10 10 12 13 12 11 9 8 6 8 10 8 8 7 7 6 6 5 13 14
7 7 6 7 6 5 6 7 4 7 10 11 9 9 11 11 12 12 10 13 8 5 8 9 9 9 9 9 9 10 9 8 8 8 11 9 7 7 7 6 5 4 7
6 7 8 8 6 7 4 3 8 9 9 9 7 7 7 8 9 10 10 9 10 10 9 9 9 10 10 9 9 9 10 10 9 8 9 11 8 7 7 7 6 5 5
11 10 8 5 6 2 1 8 11 11 9 5 5 0 1 6 10 11 9 8 8 8 8 9 9 10 11 11 11 11 10 10 10 9 9 9 10 9 7 7 7 7 6
6 5 5 6 5 -2 6 11 15 11 4 4 -1 -1 3 10 14 12 11 11 10 10 11 12 12 12 12 11 11 11 11 12 11 10 10 9 9 10 10 9 7 7 7
11 10 4 7 -1 -4 1 15 9 2 4 4 2 0 6 14 13 9 9 10 11 12 12 11 11 10 10 10 11 11 11 11 12 11 10 10 10 10 10 9 9 8 7
7 11 6 3 1 -0 2 15 4 8 4 3 1 2 10 12 11 11 11 11 11 11 11 11 11 10 9 10 11 11 12 13 13 12 12 10 9 9 10 10 10 9 9
4 12 4 2 6 2 12 3 6 4 4 1 0 2 13 14 12 11 10 9 9 8 8 9 9 9 10 10 11 13 13 14 14 14 14 14 12 11 9 9 10 10 10
16 12 4 9 5 1 10 5 4 4 1 -1 -1 6 14 12 12 11 10 10 10 10 9 8 8 9 8 7 7 7 9 11 12 12 13 16 16 15 12 10 9 9 10
15 12 12 5 3 13 6 4 4 2 1 0 9 17 16 14 13 12 12 12 10 9 9 8 8 7 7 7 8 8 8 8 10 10 11 11 12 15 16 15 12 10 10
13 13 8 4 10 4 4 3 1 -1 2 10 9 16 14 14 13 11 10 9 8 8 7 7 7 6 6 7 7 7 7 7 5 5 8 9 12 12 12 15 15 13 12
10 8 7 5 2 2 1 -2 1 7 2 15 21 17 15 14 12 10 8 6 6 8 9 8 9 10 12 12 12 11 11 10 9 10 8 6 8 10 12 12 14 16 13
8 6 3 4 4 1 -2 4 6 4 15 10 12 14 13 12 10 9 9 8 11 14 14 13 13 11 10 9 8 8 7 7 6 5 5 7 8 3 7 10 14 12 15
8 6 4 2 3 6 5 7 6 12 12 20 16 14 13 12 11 10 11 11 10 7 6 6 6 7 7 5 5 6 6 5 5 4 5 7 6 4 9 5 6 11 15
6 2 0 2 7 11 9 10 9 18 11 13 13 14 13 12 12 12 12 9 8 7 6 8 10 9 8 8 7 7 6 5 5 5 4 9 6 4 4 7 9 5 8
-1 11 14 21 13 0 16 15 8 11 16 15 13 9 8 8 9 8 7 8 9 11 12 8 7 8 7 7 5 3 4 5 7 8 9 5 14 17 6 4 6 9 6
24 21 13 10 13 18 17 5 14 16 11 8 8 8 9 9 10 13 13 11 8 7 5 5 4 5 7 6 2 2 5 10 17 15 10 17 22 21 23 8 2 5 9
15 17 13 15 13 13 9 11 12 11 10 9 11 8 7 7 6 6 5 4 3 5 5 5 4 4 1 2 4 10 13 17 21 19 21 21 18 16 19 27 23 11 9
10 7 11 13 9 5 6 14 13 11 10 8 6 8 10 11 11 10 9 7 7 2 2 -0 4 13 17 21 25 26 25 21 16 12 10 10 13 16 16 18 20 22 21
0 15 8 8 15 15 15 18 18 15 12 10 5 1 1 1 -1 0 1 3 7 9 14 20 20 21 19 19 16 15 12 10 9 7 8 8 7 10 13 13 14 16 20
Height
3137 3137 3138 3138 3139 3139 3140 3139 3138 3136 3134 3131 3129 3127 3125 3124 3124 3122 3121 3119 3117 3114 3112 3109 3106 3103 3100 3096 3093 3091 3086 3081 3080 3078 3072 3064 3059 3053 3047 3040 3035 3029 3025
3134 3135 3135 3136 3137 3138 3138 3138 3136 3134 3131 3129 3127 3125 3123 3122 3121 3119 3117 3115 3113 3110 3108 3105 3102 3099 3096 3092 3088 3085 3082 3077 3073 3071 3069 3066 3061 3052 3046 3040 3037 3032 3029
3133 3133 3134 3134 3135 3136 3136 3136 3134 3132 3129 3127 3125 3123 3121 3119 3117 3115 3112 3110 3109 3105 3103 3101 3098 3094 3092 3088 3084 3081 3077 3074 3068 3064 3061 3057 3055 3051 3046 3043 3040 3037 3033
3131 3132 3132 3133 3134 3134 3134 3133 3131 3129 3127 3124 3122 3120 3118 3116 3113 3111 3109 3106 3103 3099 3097 3095 3093 3089 3087 3083 3079 3075 3072 3070 3066 3063 3059 3055 3052 3050 3048 3045 3042 3040 3039
3129 3130 3130 3131 3131 3131 3130 3129 3128 3126 3123 3121 3118 3116 3114 3112 3110 3107 3105 3101 3097 3094 3091 3089 3086 3083 3081 3077 3074 3070 3068 3064 3062 3060 3058 3055 3052 3049 3046 3044 3043 3042 3041
3127 3127 3128 3128 3128 3128 3127 3125 3124 3121 3119 3116 3114 3111 3110 3108 3106 3103 3099 3096 3093 3089 3085 3083 3080 3078 3075 3072 3068 3065 3062 3060 3057 3055 3053 3052 3050 3048 3045 3042 3042 3041 3040
3124 3124 3125 3125 3125 3125 3123 3122 3120 3117 3114 3112 3109 3106 3104 3102 3099 3097 3094 3091 3088 3084 3080 3077 3074 3071 3068 3065 3062 3060 3057 3054 3052 3050 3048 3046 3045 3044 3042 3041 3039 3038 3039
3121 3121 3122 3122 3122 3121 3120 3118 3116 3113 3110 3107 3105 3102 3099 3096 3093 3090 3087 3084 3081 3078 3075 3071 3068 3065 3061 3058 3056 3054 3051 3049 3047 3045 3043 3042 3040 3040 3039 3038 3037 3036 3035
3118 3119 3119 3119 3118 3117 3115 3113 3111 3108 3105 3103 3100 3098 3095 3091 3088 3084 3080 3077 3075 3072 3069 3065 3062 3058 3055 3052 3049 3047 3045 3043 3041 3039 3038 3037 3035 3034 3033 3032 3031 3031 3031
3116 3116 3116 3115 3114 3113 3111 3108 3106 3104 3101 3098 3096 3093 3089 3085 3081 3078 3074 3071 3068 3064 3061 3058 3054 3051 3047 3044 3042 3040 3038 3036 3034 3032 3031 3030 3029 3027 3026 3026 3025 3024 3023
3113 3112 3112 3111 3110 3108 3106 3103 3100 3098 3095 3093 3090 3086 3083 3079 3075 3071 3068 3064 3060 3057 3054 3051 3047 3044 3041 3038 3036 3033 3031 3029 3027 3024 3023 3022 3021 3020 3020 3019 3018 3017 3015
3109 3108 3107 3106 3105 3103 3101 3097 3095 3092 3089 3087 3083 3080 3077 3073 3068 3065 3061 3058 3054 3050 3047 3044 3040 3037 3034 3031 3029 3026 3023 3022 3020 3017 3016 3014 3012 3012 3010 3010 3010 3009 3007
3103 3102 3101 3101 3099 3097 3095 3092 3089 3087 3084 3081 3077 3073 3069 3065 3061 3058 3054 3051 3047 3044 3040 3037 3033 3030 3027 3024 3021 3019 3017 3015 3012 3010 3008 3006 3004 3003 3001 3001 3001 3000 2999
3095 3095 3095 3094 3093 3090 3088 3085 3083 3080 3077 3074 3071 3067 3063 3059 3054 3050 3046 3043 3039 3036 3033 3029 3026 3023 3020 3018 3015 3012 3010 3007 3004 3002 2999 2998 2996 2995 2993 2992 2991 2990 2989
3087 3088 3088 3087 3085 3083 3080 3077 3075 3073 3070 3067 3063 3059 3055 3050 3046 3042 3039 3035 3032 3029 3026 3023 3019 3016 3013 3011 3008 3006 3003 3001 2998 2995 2992 2990 2987 2985 2984 2983 2982 2981 2980
3082 3082 3081 3080 3078 3075 3073 3071 3068 3066 3063 3059 3055 3050 3046 3042 3038 3035 3031 3028 3025 3022 3019 3015 3013 3009 3006 3003 3001 2998 2996 2993 2991 2988 2985 2982 2980 2977 2974 2972 2972 2971 2971
3075 3076 3076 3074 3071 3069 3066 3064 3061 3057 3054 3050 3045 3041 3037 3033 3029 3025 3022 3020 3017 3014 3011 3008 3005 3002 2998 2996 2993 2990 2988 2986 2983 2980 2977 2975 2971 2968 2965 2963 2961 2961 2960
3072 3071 3069 3067 3064 3061 3058 3056 3051 3047 3043 3039 3034 3030 3026 3023 3020 3017 3013 3011 3008 3005 3002 2999 2996 2994 2989 2987 2984 2981 2979 2977 2974 2971 2968 2966 2964 2960 2957 2955 2953 2951 2950
3067 3065 3062 3059 3056 3053 3050 3046 3042 3037 3032 3028 3024 3020 3016 3013 3010 3007 3004 3001 2999 2996 2993 2990 2987 2984 2981 2977 2974 2971 2969 2967 2966 2963 2960 2956 2954 2952 2948 2946 2944 2942 2942
3059 3056 3053 3050 3046 3041 3037 3034 3030 3026 3022 3017 3014 3010 3006 3003 3001 2997 2994 2991 2988 2986 2983 2981 2977 2974 2972 2968 2964 2960 2958 2956 2954 2954 2951 2947 2943 2942 2939 2935 2934 2933 2932
3049 3046 3042 3039 3035 3030 3026 3023 3019 3016 3010 3007 3004 3001 2997 2994 2990 2988 2985 2982 2979 2976 2973 2970 2969 2965 2961 2958 2954 2949 2945 2942 2940 2939 2938 2936 2933 2929 2926 2924 2922 2921 2920
3038 3034 3030 3027 3024 3019 3015 3012 3009 3005 3001 2997 2995 2992 2989 2985 2982 2978 2976 2973 2969 2965 2962 2959 2957 2955 2951 2947 2943 2939 2935 2931 2926 2924 2922 2919 2918 2916 2914 2910 2909 2908 2906
3027 3023 3019 3016 3013 3008 3003 3000 2999 2993 2990 2987 2985 2983 2979 2976 2973 2969 2965 2962 2959 2955 2951 2947 2944 2941 2939 2936 2931 2924 2921 2918 2913 2909 2905 2901 2899 2898 2898 2896 2894 2892 2892
3015 3013 3009 3004 3001 2999 2995 2990 2986 2982 2978 2976 2974 2971 2968 2965 2963 2959 2955 2950 2947 2943 2938 2934 2929 2925 2922 2920 2915 2910 2905 2902 2897 2893 2889 2888 2885 2883 2880 2878 2878 2876 2876
3006 3002 2999 2994 2992 2989 2986 2983 2977 2972 2968 2964 2962 2959 2955 2953 2950 2947 2943 2938 2936 2930 2924 2921 2915 2910 2906 2905 2899 2895 2890 2887 2884 2878 2876 2874 2870 2866 2865 2864 2861 2860 2859
2996 2993 2990 2986 2982 2979 2976 2974 2969 2963 2957 2953 2950 2947 2943 2939 2936 2932 2928 2926 2920 2916 2910 2905 2900 2895 2890 2889 2886 2882 2878 2875 2871 2865 2864 2862 2858 2854 2850 2847 2846 2844 2844